DL3NBY Weather Reports


time (UTC)temp
F
wind
direction
speed
knots
gust
knots
rain 1hr
in
rain 24hr
in
rain mn
in
humidity
%
barometer
mb
20260904092111 74 227 2.6 11.3 0.00 0.07 0.00 78 1015.0
20260904090105 74 219 2.6 9.6 0.00 0.07 0.00 79 1015.3
20260904085101 73 254 2.6 9.6 0.00 0.07 0.00 79 1015.3
20260904084119 73 222 2.6 9.6 0.00 0.07 0.00 81 1015.4
20260904083055 72 223 0.9 6.1 0.00 0.07 0.00 82 1015.4
20260904082052 70 225 0.9 3.5 0.00 0.07 0.00 85 1015.5
20260904081049 69 197 0.9 3.5 0.00 0.07 0.00 87 1015.7
20260904080046 68 0.0 0.0 0.00 0.07 0.00 91 1015.8
20260904075044 67 0.0 1.7 0.00 0.07 0.00 91 1016.0
20260904074039 66 0.0 0.0 0.00 0.07 0.00 92 1016.1
20260904073037 66 0.0 0.0 0.00 0.07 0.00 93 1016.2
20260904072033 65 180 0.0 3.5 0.00 0.07 0.00 94 1016.4
20260904071050 65 225 0.0 1.7 0.00 0.07 0.00 93 1016.4
20260904070027 64 180 0.9 3.5 0.00 0.07 0.00 94 1016.4
20260904065024 64 226 0.9 5.2 0.00 0.07 0.00 94 1016.4
20260904064021 63 180 0.9 3.5 0.00 0.07 0.00 94 1016.4
20260904061112 62 180 0.0 2.6 0.00 0.07 0.00 95 1016.4
20260904060109 61 270 0.9 3.5 0.00 0.07 0.00 96 1016.4
20260904055105 61 214 0.9 3.5 0.00 0.07 0.00 95 1016.4
20260904054102 61 235 1.7 3.5 0.00 0.07 0.00 95 1016.5
20260904052056 61 220 1.7 5.2 0.00 0.07 0.00 95 1016.5
20260904051053 61 218 1.7 3.5 0.00 0.07 0.00 96 1016.6
20260904044041 61 205 2.6 3.5 0.00 0.07 0.00 96 1016.6
20260904043038 61 210 1.7 3.5 0.00 0.07 0.00 96 1016.7
20260904042035 61 203 1.7 3.5 0.00 0.07 0.00 97 1016.6
20260904041032 62 206 2.6 4.3 0.00 0.07 0.00 97 1016.7
20260904040028 62 233 1.7 3.5 0.00 0.07 0.00 95 1016.8
20260904034022 62 187 1.7 4.3 0.00 0.07 0.00 94 1016.9
20260904033019 61 203 0.9 3.5 0.00 0.07 0.00 95 1016.9
20260904032016 59 199 2.6 5.2 0.00 0.07 0.00 97 1016.8
20260904031113 57 207 0.9 3.5 0.00 0.07 0.00 99 1016.9
20260904030109 55 0.0 0.0 0.00 0.07 0.00 99 1017.0
20260904025126 55 0.0 0.0 0.00 0.07 0.00 99 1017.1
20260904023100 57 0.0 0.0 0.00 0.07 0.00 99 1017.3
20260904022057 58 0.0 0.0 0.00 0.07 0.00 99 1017.4
20260904021055 58 0.0 0.9 0.00 0.07 0.00 99 1017.3
20260904020050 56 258 0.9 3.5 0.00 0.07 0.00 99 1017.2
20260904012038 56 0.0 0.0 0.00 0.07 0.00 99 1017.7
20260904011035 55 0.0 0.0 0.00 0.07 0.00 99 1017.5
20260904010032 55 0.0 0.0 0.00 0.07 0.00 99 1017.6
20260904004025 56 0.0 0.0 0.00 0.07 0.00 99 1017.6
20260904003042 57 0.0 0.0 0.00 0.07 0.00 99 1017.8
20260904002019 58 0.0 0.0 0.00 0.07 0.00 99 1018.0
20260904001016 57 0.0 0.0 0.00 0.07 0.00 99 1018.0
20260904000113 57 0.0 0.0 0.00 0.07 0.00 99 1018.0
20260903235110 58 0.0 0.0 0.00 0.07 0.00 99 1018.2
20260903234107 58 0.0 0.0 0.00 0.07 0.00 99 1018.3
20260903232059 59 0.0 0.0 0.00 0.07 0.00 99 1018.5
20260903231056 59 0.0 0.0 0.00 0.07 0.00 99 1018.5
20260903230053 59 0.0 0.0 0.00 0.07 0.00 99 1018.4
20260903225050 59 0.0 0.0 0.00 0.07 0.00 99 1018.5
20260903224046 59 0.0 0.0 0.00 0.07 0.00 99 1018.7
20260903223103 59 0.0 0.0 0.00 0.07 0.00 99 1018.7
20260903222040 59 0.0 0.0 0.00 0.07 0.00 99 1018.6
20260903221037 59 0.0 0.0 0.00 0.07 0.00 99 1018.6
20260903220034 60 0.0 0.0 0.00 0.07 0.00 99 1018.7
20260903215031 60 0.0 0.0 0.00 0.07 0.07 99 1018.7
20260903213024 60 0.0 0.0 0.00 0.07 0.07 99 1018.5
20260903212017 61 0.0 0.0 0.00 0.07 0.07 99 1018.6
20260903205106 61 0.0 0.0 0.00 0.07 0.07 99 1018.6
20260903204103 61 0.0 0.0 0.00 0.07 0.07 99 1018.9
20260903202057 61 0.0 0.0 0.00 0.07 0.07 99 1018.8
20260903201036 61 0.0 0.0 0.00 0.07 0.07 99 1018.8
20260903200033 61 0.0 0.9 0.00 0.07 0.07 99 1018.8
20260903194026 61 0.0 0.9 0.00 0.07 0.07 99 1018.3
20260903193021 62 0.0 0.0 0.00 0.07 0.07 99 1018.2
20260903191115 63 0.0 0.0 0.00 0.07 0.07 99 1018.4
20260903190111 62 0.0 0.0 0.00 0.07 0.07 99 1018.6
20260903185108 62 0.0 0.0 0.00 0.07 0.07 99 1018.5
20260903184105 62 0.0 0.0 0.00 0.07 0.07 99 1018.4
20260903183102 63 0.0 0.0 0.00 0.07 0.07 99 1018.3
20260903182059 63 0.0 0.0 0.00 0.07 0.07 99 1018.3
20260903181056 64 0.0 0.0 0.00 0.07 0.07 99 1018.0
20260903180113 64 0.0 0.0 0.00 0.07 0.07 99 1018.0
20260903175040 64 0.0 0.0 0.00 0.07 0.07 98 1018.0
20260903174036 65 0.0 0.0 0.00 0.07 0.07 98 1018.0
20260903173033 65 0.0 0.0 0.00 0.07 0.07 98 1017.9
20260903171027 65 0.0 1.7 0.00 0.07 0.07 98 1018.0
20260903170023 65 0.0 0.9 0.00 0.07 0.07 98 1017.9
20260903165019 65 0.0 0.0 0.00 0.07 0.07 98 1018.1
20260903164016 65 0.0 0.0 0.00 0.07 0.07 97 1018.2
20260903163113 66 0.0 0.0 0.00 0.07 0.07 97 1018.2
20260903162111 66 0.0 0.0 0.00 0.07 0.07 97 1018.2
20260903161107 66 0.0 0.9 0.00 0.07 0.07 97 1018.2
20260903153053 65 0.0 0.0 0.00 0.07 0.07 96 1018.3
20260903152050 64 0.0 1.7 0.00 0.07 0.07 96 1018.3
20260903151047 64 0.0 0.0 0.00 0.07 0.07 97 1018.3
20260903150044 65 0.0 0.0 0.00 0.07 0.07 97 1018.4
20260903145041 65 180 0.0 1.7 0.00 0.07 0.07 96 1018.5
20260903143035 65 220 0.9 2.6 0.00 0.07 0.07 96 1018.5
20260903142032 65 180 0.0 1.7 0.01 0.07 0.07 95 1018.6
20260903141025 64 0.0 0.0 0.04 0.07 0.07 96 1018.6
20260903135037 64 0.0 0.0 0.07 0.07 0.07 98 1018.9
20260903134111 63 0.0 0.0 0.07 0.07 0.07 98 1018.9
20260903133108 63 0.0 0.9 0.07 0.07 0.07 97 1019.2
20260903132104 64 0.0 0.9 0.06 0.06 0.06 95 1019.4
20260903131101 65 0.0 0.9 0.04 0.04 0.04 92 1019.5
20260903125055 70 239 0.9 4.3 0.00 0.00 0.00 76 1019.6
20260903124052 72 225 0.0 3.5 0.00 0.00 0.00 68 1019.3
20260903122045 72 0.0 0.9 0.00 0.00 0.00 64 1019.0
20260903121042 72 192 1.7 4.3 0.00 0.00 0.00 64 1018.9
20260903115036 74 219 1.7 7.0 0.00 0.00 0.00 62 1019.1
20260903114033 74 0 0.9 3.5 0.00 0.00 0.00 60 1019.2
20260903113030 74 207 0.9 5.2 0.00 0.00 0.00 60 1019.4
20260903112047 74 281 1.7 5.2 0.00 0.00 0.00 59 1019.3
20260903111023 74 201 0.9 4.3 0.00 0.00 0.00 60 1019.4
20260903110040 72 225 0.9 2.6 0.00 0.00 0.00 60 1019.4
20260903105016 72 217 4.3 12.2 0.00 0.00 0.00 62 1019.7
20260903102106 70 203 0.9 7.0 0.00 0.00 0.00 68 1019.9
20260903101123 70 207 0.9 3.5 0.00 0.00 0.00 66 1020.1
20260903100100 70 260 1.7 5.2 0.00 0.00 0.00 67 1020.1
20260903095057 69 214 0.9 3.5 0.00 0.00 0.00 67 1020.2
20260903094054 68 230 0.9 6.1 0.00 0.00 0.00 68 1020.4
20260903093050 69 249 1.7 3.5 0.00 0.00 0.00 67 1020.2